Change the Weather History Date:

Tuesday, May 1, 2012

  Actual Average (KRIC) Record (KRIC)
Temperature  
Mean Temperature 74 °F 62 °F  
Max Temperature 85 °F 75 °F 94 °F (1942)
Min Temperature 62 °F 51 °F 36 °F (1996)
Degree Days  
Heating Degree Days 0 4  
Month to date heating degree days 4  
Since 1 July heating degree days 3696  
Cooling Degree Days 8 2  
Month to date cooling degree days 2  
Year to date cooling degree days 44  
Growing Degree Days 24 (Base 50)    
Moisture  
Dew Point 67 °F    
Average Humidity 80    
Maximum Humidity 99    
Minimum Humidity 56    
Precipitation  
Precipitation 0.01 in 0.11 in 1.10 in (1961)
Month to date precipitation 0.11  
Year to date precipitation 13.22  
Snow  
Snow 0.00 in 0.00 in 0.00 in (2002)
Month to date snowfall 0.0  
Since 1 July snowfall 10.3  
Snow Depth -    
Sea Level Pressure  
Sea Level Pressure 30.06 in    
Wind  
Wind Speed 8 mph (SSW)    
Max Wind Speed 16 mph    
Max Gust Speed 21 mph    
Visibility 10 miles    
Events      
T = Trace of Precipitation, MM = Missing Value Source: NWS Daily Summary

Daily Weather History Graph

Daily Weather History Graph

Search for Another Location

Airport or City:

Trip Planner

Search our weather history database for the weather conditions in past years. The results will help you decide how hot, cold, wet, or windy it might be!

Date:

Astronomy

May. 01, 2012 Rise Set
Actual Time 6:11 AM EDT 7:57 PM EDT
Civil Twilight 5:43 AM EDT 8:25 PM EDT
Nautical Twilight 5:09 AM EDT 8:59 PM EDT
Astronomical Twilight 4:32 AM EDT 9:36 PM EDT
Moon 3:04 PM EDT (5/1) 3:01 AM EDT (5/1)
Length of Visible Light 14h 42m
Length of Day
13h 46m
Waxing Gibbous, 73% of the Moon is Illuminated
May 1
Waxing Gibbous
May 5
Full
May 12
Last Quarter
May 20
New
May 28
First Quarter

Hourly Weather History & Observations

Time (EDT) Temp. Heat Index Dew Point Humidity Pressure Visibility Wind Dir Wind Speed Gust Speed Precip Events Conditions
12:15 AM 62.8 °F - 61.0 °F 94% 30.15 in 10.0 mi SE 9.2 mph - N/A   Clear
12:35 AM 63.0 °F - 61.9 °F 96% 30.15 in 10.0 mi SSE 6.9 mph - N/A   Clear
12:55 AM 63.5 °F - 62.8 °F 97% 30.15 in 10.0 mi SSE 8.1 mph - N/A   Mostly Cloudy
1:15 AM 64.8 °F - 63.5 °F 96% 30.14 in 10.0 mi SSE 8.1 mph - N/A   Overcast
1:35 AM 65.3 °F - 64.0 °F 96% 30.13 in 10.0 mi SSE 9.2 mph 17.3 mph N/A   Mostly Cloudy
2:15 AM 65.8 °F - 64.8 °F 96% 30.10 in 10.0 mi SE 10.4 mph - N/A   Mostly Cloudy
2:35 AM 65.7 °F - 64.9 °F 98% 30.11 in 10.0 mi SSE 8.1 mph - N/A   Overcast
2:55 AM 65.8 °F - 65.3 °F 98% 30.09 in 10.0 mi SSE 8.1 mph - N/A   Overcast
3:15 AM 65.8 °F - 65.5 °F 99% 30.09 in 10.0 mi SSE 6.9 mph - N/A   Overcast
3:35 AM 66.2 °F - 65.7 °F 98% 30.08 in 10.0 mi SSE 6.9 mph - N/A   Overcast
3:55 AM 66.2 °F - 65.8 °F 99% 30.09 in 10.0 mi SSE 6.9 mph - N/A   Overcast
4:15 AM 66.6 °F - 66.2 °F 99% 30.09 in 10.0 mi South 8.1 mph - N/A   Overcast
4:35 AM 66.7 °F - 66.4 °F 99% 30.10 in 10.0 mi South 8.1 mph - N/A   Overcast
5:15 AM 67.1 °F - 66.6 °F 98% 30.08 in 10.0 mi South 8.1 mph - N/A   Scattered Clouds
5:35 AM 67.1 °F - 66.4 °F 98% 30.09 in 10.0 mi SSW 6.9 mph - N/A   Scattered Clouds
5:55 AM 67.5 °F - 66.6 °F 97% 30.09 in 7.0 mi SSW 6.9 mph - N/A   Mostly Cloudy
6:15 AM 67.6 °F - 67.1 °F 98% 30.09 in 10.0 mi SSW 8.1 mph - 0.01 in   Overcast
6:35 AM 67.5 °F - 67.1 °F 99% 30.10 in 10.0 mi SSW 8.1 mph - 0.01 in   Overcast
6:55 AM 67.6 °F - 67.3 °F 99% 30.10 in 10.0 mi SSW 6.9 mph - 0.01 in   Overcast
7:15 AM 68.0 °F - 67.3 °F 98% 30.10 in 10.0 mi SW 8.1 mph 16.1 mph N/A   Overcast
7:35 AM 68.2 °F - 67.3 °F 97% 30.12 in 10.0 mi SW 10.4 mph - N/A   Overcast
8:35 AM 70.0 °F - 68.2 °F 94% 30.09 in 10.0 mi SW 6.9 mph - N/A   Clear
9:15 AM 70.0 °F - 68.2 °F 94% 30.09 in 10.0 mi SW 8.1 mph - N/A   Scattered Clouds
9:35 AM 71.2 °F - 68.2 °F 90% 30.09 in 10.0 mi SSW 9.2 mph - N/A   Mostly Cloudy
10:15 AM 74.1 °F - 68.7 °F 83% 30.08 in 10.0 mi SW 11.5 mph - N/A   Clear
10:35 AM 75.0 °F - 68.2 °F 79% 30.08 in 10.0 mi SW 10.4 mph 18.4 mph N/A   Clear
10:55 AM 76.8 °F - 68.2 °F 75% 30.09 in 10.0 mi SW 11.5 mph 20.7 mph N/A   Clear
11:15 AM 77.4 °F - 68.4 °F 74% 30.08 in 10.0 mi WSW 13.8 mph - N/A   Scattered Clouds
11:35 AM 79.7 °F - 68.9 °F 69% 30.08 in 10.0 mi SW 12.7 mph 19.6 mph N/A   Clear
12:15 PM 81.5 °F 84.8 °F 69.1 °F 66% 30.06 in 10.0 mi SW 11.5 mph 17.3 mph N/A   Scattered Clouds
12:35 PM 81.7 °F 84.9 °F 68.9 °F 65% 30.06 in 10.0 mi SW 12.7 mph - N/A   Clear
12:55 PM 82.4 °F 85.8 °F 68.9 °F 64% 30.05 in 10.0 mi SW 11.5 mph 16.1 mph N/A   Clear
1:15 PM 82.4 °F 85.8 °F 68.9 °F 64% 30.04 in 10.0 mi SW 12.7 mph 18.4 mph N/A   Scattered Clouds
1:35 PM 83.1 °F 86.8 °F 69.3 °F 63% 30.04 in 10.0 mi SW 16.1 mph 19.6 mph N/A   Scattered Clouds
1:55 PM 83.7 °F 87.5 °F 69.4 °F 62% 30.04 in 10.0 mi SW 9.2 mph 16.1 mph N/A   Mostly Cloudy
2:15 PM 83.7 °F 87.5 °F 69.6 °F 62% 30.04 in 10.0 mi WSW 11.5 mph - N/A   Mostly Cloudy
2:35 PM 83.8 °F 87.5 °F 69.3 °F 61% 30.03 in 10.0 mi SW 11.5 mph 18.4 mph N/A   Mostly Cloudy
2:55 PM 82.9 °F 86.7 °F 69.6 °F 64% 30.03 in 10.0 mi WSW 9.2 mph - N/A   Mostly Cloudy
3:15 PM 82.8 °F 86.4 °F 69.3 °F 64% 30.02 in 10.0 mi WSW 10.4 mph - N/A   Mostly Cloudy
3:35 PM 84.9 °F 89.1 °F 69.8 °F 60% 30.01 in 10.0 mi WSW 12.7 mph - N/A   Mostly Cloudy
3:55 PM 85.1 °F 89.1 °F 69.4 °F 59% 30.00 in 10.0 mi West 10.4 mph - N/A   Mostly Cloudy
4:15 PM 84.7 °F 88.8 °F 69.4 °F 60% 30.00 in 10.0 mi WSW 13.8 mph 18.4 mph N/A   Mostly Cloudy
4:35 PM 84.4 °F 88.2 °F 69.1 °F 60% 30.00 in 10.0 mi WSW 5.8 mph - N/A   Overcast
4:55 PM 85.5 °F 89.1 °F 68.5 °F 57% 30.01 in 10.0 mi West 10.4 mph - N/A   Mostly Cloudy
5:15 PM 84.6 °F 87.9 °F 68.4 °F 58% 30.01 in 10.0 mi West 10.4 mph - N/A   Scattered Clouds
5:35 PM 84.4 °F 88.2 °F 69.1 °F 60% 30.01 in 10.0 mi WSW 5.8 mph - N/A   Scattered Clouds
5:55 PM 85.1 °F 88.2 °F 68.0 °F 56% 30.01 in 10.0 mi WSW 10.4 mph - N/A   Scattered Clouds
6:15 PM 83.7 °F 86.7 °F 68.2 °F 59% 30.00 in 10.0 mi West 5.8 mph - N/A   Scattered Clouds
6:35 PM 83.1 °F 86.3 °F 68.2 °F 61% 30.00 in 10.0 mi SW 4.6 mph - N/A   Scattered Clouds
6:55 PM 82.4 °F 85.6 °F 68.5 °F 63% 29.99 in 10.0 mi West 4.6 mph - N/A   Clear
7:15 PM 81.0 °F 84.2 °F 69.4 °F 68% 29.99 in 10.0 mi WSW 3.5 mph - N/A   Scattered Clouds
7:35 PM 80.4 °F 83.0 °F 67.6 °F 65% 29.99 in 10.0 mi Calm Calm - N/A   Scattered Clouds
7:55 PM 76.3 °F - 69.6 °F 80% 30.01 in 10.0 mi Calm Calm - N/A   Clear
8:15 PM 76.6 °F - 68.5 °F 76% 30.02 in 10.0 mi SSW 4.6 mph - N/A   Clear
8:35 PM 76.8 °F - 68.9 °F 76% 30.02 in 10.0 mi SSW 6.9 mph - N/A   Clear
8:55 PM 76.3 °F - 69.1 °F 78% 30.03 in 10.0 mi SSW 3.5 mph - N/A   Clear
9:15 PM 75.2 °F - 68.9 °F 81% 30.03 in 10.0 mi South 4.6 mph - N/A   Clear
9:35 PM 74.1 °F - 68.0 °F 81% 30.03 in 10.0 mi SSW 3.5 mph - N/A   Clear
9:55 PM 73.0 °F - 67.1 °F 82% 30.04 in 10.0 mi Calm Calm - N/A   Clear
10:15 PM 70.0 °F - 67.1 °F 91% 30.05 in 10.0 mi Calm Calm - N/A   Clear
10:35 PM 71.2 °F - 66.6 °F 85% 30.05 in 10.0 mi SW 3.5 mph - N/A   Clear
10:55 PM 70.9 °F - 66.2 °F 85% 30.04 in 10.0 mi SSW 4.6 mph - N/A   Clear
11:15 PM 70.3 °F - 65.7 °F 85% 30.04 in 10.0 mi Calm Calm - N/A   Clear
11:35 PM 69.8 °F - 65.3 °F 86% 30.04 in 10.0 mi Calm Calm - N/A   Clear
11:55 PM 69.8 °F - 65.1 °F 85% 30.04 in 10.0 mi Calm Calm - N/A   Clear